Temp
-9 -9 -9 -9 -9 -9 -9 -9 -9 -9 -9 -9 -9 -9 -10 -10 -10 -10 -10 -10 -10 -10 -10 -10 -10 -11 -11 -11 -11 -11 -11 -11 -11 -11 -11 -11 -11 -11 -11 -11 -11 -11
-9 -9 -9 -9 -9 -9 -9 -9 -9 -9 -9 -9 -9 -10 -10 -10 -10 -10 -10 -10 -10 -10 -10 -11 -11 -11 -11 -11 -11 -11 -11 -11 -11 -11 -11 -11 -11 -11 -11 -11 -11 -11
-9 -9 -9 -9 -9 -9 -9 -9 -9 -9 -9 -9 -9 -10 -10 -10 -10 -10 -10 -10 -10 -10 -11 -11 -11 -11 -11 -11 -11 -11 -11 -11 -11 -11 -11 -11 -11 -11 -11 -11 -11 -11
-9 -9 -9 -9 -9 -9 -9 -9 -9 -9 -9 -9 -10 -10 -10 -10 -10 -10 -10 -10 -10 -11 -11 -11 -11 -11 -11 -11 -11 -11 -11 -11 -11 -11 -11 -11 -11 -11 -11 -11 -11 -11
-9 -9 -9 -9 -9 -9 -9 -9 -9 -9 -9 -9 -10 -10 -10 -10 -10 -10 -10 -11 -11 -11 -11 -11 -11 -11 -11 -11 -11 -11 -11 -11 -11 -11 -11 -11 -12 -12 -12 -12 -12 -12
-9 -9 -9 -9 -9 -9 -9 -9 -9 -9 -9 -10 -10 -10 -10 -11 -11 -11 -11 -11 -11 -11 -11 -11 -11 -11 -11 -11 -11 -11 -11 -11 -11 -11 -11 -12 -12 -12 -12 -12 -12 -12
-9 -9 -9 -9 -9 -9 -9 -9 -9 -9 -9 -10 -10 -10 -10 -11 -11 -11 -11 -11 -11 -11 -11 -11 -11 -11 -11 -11 -11 -11 -11 -11 -11 -12 -12 -12 -12 -12 -12 -12 -12 -12
-9 -9 -9 -9 -9 -9 -9 -9 -9 -9 -10 -10 -10 -10 -11 -11 -11 -11 -11 -11 -11 -11 -11 -11 -11 -11 -11 -11 -11 -11 -12 -12 -12 -12 -12 -12 -12 -12 -12 -12 -12 -12
-9 -9 -9 -9 -9 -9 -9 -9 -9 -10 -10 -10 -10 -10 -11 -11 -11 -11 -11 -11 -11 -11 -11 -11 -11 -11 -11 -11 -12 -12 -12 -12 -12 -12 -12 -12 -12 -12 -12 -12 -12 -12
-9 -9 -9 -9 -9 -9 -9 -9 -9 -10 -10 -10 -10 -10 -11 -11 -11 -11 -11 -11 -11 -11 -11 -11 -11 -11 -11 -12 -12 -12 -12 -12 -12 -12 -12 -12 -12 -12 -12 -12 -12 -12
-9 -9 -9 -9 -9 -10 -9 -9 -9 -10 -10 -10 -10 -11 -11 -11 -11 -11 -11 -11 -11 -11 -11 -11 -12 -12 -12 -12 -12 -12 -12 -12 -12 -12 -13 -13 -13 -13 -13 -13 -13 -12
-9 -9 -9 -9 -10 -10 -9 -9 -9 -10 -10 -10 -10 -11 -11 -11 -11 -11 -11 -11 -11 -11 -11 -12 -12 -12 -12 -12 -12 -12 -12 -12 -12 -13 -13 -13 -13 -13 -13 -13 -13 -13
-9 -9 -9 -9 -10 -10 -9 -9 -9 -10 -10 -10 -11 -11 -11 -11 -11 -11 -11 -11 -11 -11 -11 -12 -12 -12 -12 -12 -12 -12 -12 -12 -13 -13 -13 -13 -13 -13 -13 -13 -13 -13
-9 -9 -9 -10 -10 -10 -9 -9 -9 -10 -10 -10 -11 -11 -11 -11 -11 -11 -11 -11 -11 -11 -12 -12 -12 -12 -12 -12 -12 -12 -12 -13 -13 -13 -13 -13 -13 -13 -13 -13 -13 -13
-10 -9 -10 -10 -10 -10 -10 -10 -10 -10 -10 -10 -11 -11 -11 -11 -11 -11 -11 -11 -11 -11 -12 -12 -12 -12 -12 -12 -12 -12 -13 -13 -13 -13 -13 -13 -13 -13 -13 -13 -13 -13
-10 -10 -10 -10 -10 -10 -10 -10 -10 -10 -10 -10 -11 -11 -11 -11 -11 -11 -11 -11 -11 -11 -12 -12 -12 -12 -12 -12 -12 -13 -13 -13 -13 -13 -13 -13 -13 -13 -13 -13 -13 -13
-10 -10 -10 -10 -10 -10 -10 -10 -10 -10 -10 -10 -11 -11 -11 -11 -11 -11 -11 -11 -11 -12 -12 -12 -12 -12 -12 -12 -12 -13 -13 -13 -13 -13 -13 -13 -13 -13 -13 -13 -13 -13
-10 -10 -10 -10 -10 -10 -10 -10 -10 -10 -10 -10 -11 -11 -11 -11 -11 -11 -11 -11 -12 -12 -12 -12 -12 -12 -12 -12 -12 -13 -13 -13 -13 -13 -13 -13 -13 -13 -13 -13 -13 -13
-10 -10 -10 -10 -10 -10 -10 -10 -10 -10 -10 -10 -11 -11 -11 -11 -11 -11 -11 -12 -12 -12 -12 -12 -12 -12 -12 -12 -12 -12 -13 -13 -13 -13 -13 -13 -13 -13 -13 -13 -13 -13
-10 -10 -10 -10 -10 -10 -10 -10 -10 -10 -10 -10 -11 -11 -11 -11 -11 -11 -11 -12 -12 -12 -12 -12 -12 -12 -12 -12 -12 -12 -13 -13 -13 -13 -13 -13 -13 -13 -13 -13 -13 -13
-10 -10 -10 -10 -10 -10 -10 -10 -10 -10 -10 -10 -11 -11 -11 -11 -11 -11 -12 -12 -12 -12 -12 -12 -12 -12 -12 -12 -12 -12 -13 -13 -13 -13 -13 -13 -13 -13 -13 -13 -13 -13
-10 -10 -10 -10 -10 -10 -10 -10 -10 -10 -10 -11 -11 -11 -11 -11 -11 -11 -12 -12 -12 -11 -12 -12 -12 -12 -12 -12 -12 -12 -12 -13 -13 -13 -13 -13 -13 -13 -13 -13 -13 -13
-10 -10 -10 -10 -10 -10 -10 -10 -10 -10 -11 -11 -11 -11 -11 -11 -11 -12 -12 -12 -12 -11 -12 -12 -12 -12 -12 -12 -12 -12 -12 -13 -13 -13 -13 -13 -13 -13 -13 -13 -13 -13
-10 -10 -10 -10 -10 -10 -10 -10 -10 -11 -11 -11 -11 -11 -11 -11 -12 -12 -12 -12 -12 -12 -12 -12 -12 -12 -12 -12 -12 -12 -12 -13 -13 -13 -13 -13 -13 -13 -13 -13 -13 -13
-10 -10 -10 -10 -10 -11 -11 -11 -11 -11 -11 -11 -11 -11 -11 -12 -12 -12 -12 -12 -12 -12 -12 -12 -12 -12 -12 -12 -12 -12 -12 -13 -13 -13 -13 -13 -13 -13 -13 -13 -13 -13
-10 -10 -11 -11 -11 -11 -11 -11 -11 -11 -11 -11 -11 -12 -12 -12 -12 -12 -12 -12 -12 -12 -12 -12 -12 -12 -12 -12 -12 -12 -12 -13 -13 -13 -13 -13 -13 -13 -13 -13 -13 -13
Height
5886 5884 5882 5881 5879 5878 5877 5876 5875 5874 5873 5872 5871 5871 5870 5870 5869 5868 5867 5866 5865 5864 5863 5862 5860 5859 5857 5856 5855 5853 5852 5850 5849 5848 5846 5845 5843 5842 5841 5839 5838 5836
5885 5883 5881 5880 5878 5877 5876 5874 5873 5872 5872 5871 5870 5869 5869 5868 5867 5866 5865 5864 5863 5862 5861 5860 5858 5857 5856 5854 5853 5852 5850 5849 5847 5846 5844 5843 5841 5840 5838 5837 5835 5834
5884 5882 5881 5879 5877 5876 5874 5873 5872 5871 5870 5869 5868 5868 5867 5866 5865 5864 5863 5862 5861 5860 5859 5858 5856 5855 5854 5853 5851 5850 5849 5847 5846 5844 5842 5841 5839 5837 5836 5834 5833 5831
5882 5881 5879 5878 5876 5874 5873 5872 5870 5869 5869 5868 5867 5866 5865 5864 5863 5862 5861 5860 5859 5858 5857 5856 5854 5853 5852 5851 5849 5848 5846 5845 5843 5842 5840 5838 5837 5835 5833 5832 5830 5829
5879 5878 5877 5876 5874 5873 5871 5870 5869 5868 5867 5866 5865 5864 5863 5862 5861 5860 5860 5859 5857 5856 5855 5854 5852 5851 5850 5849 5847 5846 5844 5842 5841 5839 5837 5835 5834 5832 5831 5829 5828 5826
5877 5876 5875 5874 5872 5871 5869 5868 5867 5866 5865 5864 5863 5862 5861 5860 5860 5859 5858 5857 5856 5854 5853 5852 5850 5849 5848 5846 5845 5843 5841 5840 5838 5836 5834 5833 5831 5830 5828 5827 5825 5823
5876 5874 5873 5872 5870 5868 5867 5866 5866 5865 5864 5862 5861 5860 5859 5859 5858 5857 5856 5855 5854 5853 5851 5850 5848 5847 5846 5844 5842 5841 5839 5837 5835 5833 5831 5830 5828 5827 5826 5824 5822 5821
5874 5872 5871 5869 5868 5866 5865 5865 5864 5863 5862 5860 5859 5858 5858 5857 5856 5855 5854 5853 5852 5851 5849 5848 5846 5845 5844 5842 5840 5838 5837 5834 5832 5830 5829 5827 5826 5824 5823 5822 5820 5819
5871 5870 5868 5867 5865 5864 5863 5863 5862 5861 5859 5858 5857 5857 5856 5855 5854 5853 5852 5851 5850 5848 5847 5846 5844 5843 5841 5840 5838 5836 5834 5832 5830 5828 5826 5825 5823 5822 5821 5819 5818 5817
5869 5868 5866 5865 5863 5862 5862 5861 5859 5858 5857 5856 5855 5855 5854 5853 5852 5851 5850 5849 5848 5846 5845 5843 5842 5841 5839 5837 5836 5834 5832 5830 5827 5826 5824 5823 5821 5820 5818 5817 5816 5815
5867 5866 5864 5863 5862 5861 5860 5859 5857 5856 5855 5854 5853 5853 5852 5851 5850 5850 5848 5847 5846 5844 5843 5841 5840 5838 5837 5835 5833 5831 5829 5827 5825 5824 5822 5820 5819 5817 5816 5815 5813 5812
5865 5863 5862 5861 5860 5859 5858 5856 5855 5854 5853 5852 5851 5851 5850 5849 5848 5848 5846 5845 5844 5842 5841 5839 5838 5836 5834 5833 5831 5829 5827 5825 5824 5822 5820 5819 5817 5816 5814 5813 5811 5810
5862 5861 5860 5859 5858 5857 5856 5854 5853 5852 5850 5850 5849 5848 5848 5847 5846 5845 5844 5843 5841 5840 5838 5837 5836 5834 5833 5831 5829 5827 5825 5824 5822 5821 5819 5817 5816 5814 5813 5811 5809 5808
5860 5859 5858 5857 5856 5855 5854 5852 5851 5849 5848 5847 5847 5846 5845 5845 5844 5843 5842 5840 5839 5838 5836 5835 5834 5833 5831 5829 5827 5825 5824 5822 5821 5819 5818 5816 5815 5813 5811 5810 5808 5806
5858 5857 5856 5855 5854 5853 5851 5850 5849 5848 5846 5845 5845 5844 5843 5842 5842 5841 5839 5838 5836 5835 5834 5833 5832 5831 5829 5828 5826 5824 5822 5821 5819 5818 5817 5815 5814 5812 5810 5808 5806 5804
5856 5855 5854 5853 5852 5851 5850 5848 5847 5846 5845 5843 5843 5842 5841 5840 5839 5838 5837 5835 5834 5833 5832 5831 5830 5828 5827 5826 5824 5823 5821 5820 5818 5817 5816 5814 5812 5810 5808 5806 5804 5802
5854 5853 5852 5851 5850 5849 5848 5847 5845 5844 5843 5841 5840 5839 5839 5838 5837 5836 5834 5833 5832 5830 5829 5828 5827 5826 5825 5824 5822 5821 5820 5818 5817 5816 5814 5813 5811 5809 5807 5805 5803 5801
5852 5851 5850 5849 5848 5847 5846 5845 5844 5842 5841 5839 5838 5837 5836 5835 5834 5833 5832 5831 5830 5829 5828 5826 5825 5824 5823 5822 5821 5820 5818 5817 5816 5814 5813 5811 5809 5807 5805 5803 5801 5799
5850 5849 5848 5847 5846 5845 5844 5843 5841 5840 5839 5837 5836 5835 5834 5833 5832 5831 5830 5829 5828 5827 5826 5825 5824 5822 5821 5820 5819 5818 5817 5815 5814 5812 5811 5809 5807 5805 5803 5801 5799 5797
5848 5847 5846 5845 5844 5843 5842 5841 5839 5838 5836 5835 5834 5833 5832 5831 5830 5829 5828 5827 5826 5825 5824 5823 5822 5821 5820 5819 5818 5817 5815 5814 5812 5810 5809 5807 5805 5803 5801 5799 5797 5795
5846 5845 5844 5844 5843 5841 5840 5839 5837 5836 5834 5833 5832 5831 5830 5829 5828 5827 5826 5825 5824 5824 5823 5822 5820 5820 5819 5818 5817 5815 5814 5812 5810 5809 5807 5805 5803 5801 5799 5797 5795 5793
5844 5843 5843 5842 5841 5839 5838 5837 5835 5834 5832 5831 5830 5829 5828 5827 5827 5826 5825 5824 5823 5822 5821 5820 5819 5818 5818 5817 5815 5814 5812 5810 5809 5807 5805 5803 5801 5799 5798 5795 5793 5791
5843 5842 5841 5840 5839 5837 5836 5835 5833 5832 5830 5829 5828 5827 5826 5825 5824 5824 5823 5822 5821 5820 5819 5818 5818 5817 5816 5815 5814 5812 5810 5809 5807 5805 5803 5801 5800 5798 5796 5794 5792 5790
5841 5840 5839 5838 5837 5835 5834 5833 5831 5830 5828 5827 5826 5825 5824 5823 5823 5822 5821 5820 5819 5818 5818 5817 5817 5816 5815 5814 5812 5810 5809 5807 5805 5803 5801 5800 5798 5796 5794 5792 5790 5788
5839 5838 5837 5836 5835 5833 5832 5831 5829 5827 5826 5825 5824 5823 5823 5822 5821 5820 5819 5819 5818 5818 5817 5817 5816 5815 5814 5812 5810 5809 5807 5805 5803 5802 5800 5798 5796 5795 5793 5791 5789 5787
5837 5836 5835 5834 5832 5831 5830 5828 5827 5825 5824 5823 5823 5822 5821 5820 5820 5819 5818 5818 5818 5817 5817 5816 5815 5814 5812 5810 5809 5807 5805 5804 5802 5800 5798 5796 5795 5793 5791 5789 5787 5785
Wind_Speed
19 19 17 16 16 15 15 15 15 14 14 13 12 12 12 12 12 12 13 14 15 15 16 16 16 16 16 17 17 17 18 19 19 20 20 21 21 22 22 23 23 23
20 19 18 17 16 16 16 15 15 15 14 13 12 12 12 12 12 13 14 14 15 15 16 15 15 15 16 17 17 18 18 19 20 21 21 22 23 23 23 23 23 24
19 18 17 17 16 16 17 16 16 15 14 14 12 12 12 12 13 13 14 15 15 15 16 16 15 16 16 17 18 19 20 21 22 22 23 23 24 24 24 24 24 24
19 18 17 17 17 17 17 17 16 15 14 14 13 12 12 12 13 14 14 15 15 16 16 16 16 16 17 19 20 21 22 23 24 24 24 24 24 24 24 24 24 24
19 19 18 17 17 17 17 17 16 15 15 14 13 13 12 12 13 14 15 15 16 16 16 17 17 17 19 20 22 23 23 24 25 25 25 25 24 24 23 23 23 23
20 19 18 17 16 17 17 17 17 16 15 14 13 13 13 13 14 14 15 16 16 16 17 17 18 19 20 22 23 23 23 24 25 26 26 25 24 23 23 23 23 23
20 19 17 16 16 17 17 18 17 16 15 14 13 13 13 13 14 15 16 16 16 17 18 18 19 20 21 22 23 23 24 26 26 26 25 24 23 22 22 22 22 22
19 18 17 16 16 17 18 17 17 15 15 14 14 13 13 14 15 16 16 17 17 17 18 19 19 20 22 22 23 24 25 27 27 26 24 22 22 22 22 22 22 21
19 17 17 17 16 17 17 17 16 15 15 15 14 14 14 14 15 16 16 17 17 18 19 19 20 21 22 22 24 25 26 27 26 24 22 21 21 22 22 22 21 20
18 17 17 17 16 17 17 16 15 15 15 15 15 14 15 15 16 16 17 17 17 18 19 19 20 22 23 23 24 26 27 26 24 22 21 21 22 23 23 22 21 20
18 18 17 17 16 16 16 16 15 15 15 15 15 15 15 16 16 16 17 17 18 18 19 20 21 22 23 24 25 26 26 24 22 21 21 22 23 24 23 22 21 21
18 17 17 17 16 16 16 16 16 15 15 15 15 15 16 17 17 17 17 18 18 19 20 21 22 23 24 25 26 26 25 22 20 20 21 23 23 23 22 22 21 21
18 18 17 16 16 15 15 16 16 15 15 15 15 16 17 17 17 18 18 18 18 19 20 21 22 23 24 25 25 25 23 20 19 20 21 22 23 22 22 21 21 22
18 18 17 16 15 15 15 15 16 15 15 15 15 16 17 17 18 18 18 18 19 20 21 21 22 22 23 24 24 23 21 19 19 20 21 22 22 21 21 21 21 22
18 17 16 15 14 15 15 16 16 15 15 15 15 16 17 17 17 18 18 18 19 20 21 21 22 22 22 22 22 20 19 18 19 20 21 21 21 21 21 21 21 22
17 16 15 14 14 15 15 15 15 15 14 14 15 16 16 17 17 17 17 18 19 20 21 21 22 21 21 21 19 18 18 18 19 20 20 20 20 20 21 21 21 21
17 15 14 13 14 14 15 15 15 15 14 14 14 15 16 16 16 16 17 18 19 19 20 21 21 21 20 19 18 17 17 18 18 19 20 20 20 20 21 21 21 21
16 15 13 13 14 14 14 14 14 14 14 14 14 14 15 15 15 16 16 17 18 18 20 20 20 20 19 18 18 17 18 18 19 19 20 20 20 20 21 21 21 21
15 14 13 13 14 14 14 14 14 14 13 13 13 13 14 14 15 15 16 16 17 18 19 19 19 19 18 18 18 18 18 19 19 20 20 20 20 20 21 21 21 21
14 13 13 14 14 14 14 14 14 14 13 12 12 12 13 14 14 15 15 16 16 17 17 18 18 18 17 17 18 18 19 19 19 20 20 20 20 20 21 21 21 21
13 13 13 14 14 14 14 14 14 13 13 12 12 12 13 13 13 14 14 15 15 16 16 17 17 16 16 17 18 19 19 19 19 20 20 20 20 20 21 21 21 21
12 13 14 14 14 14 14 14 13 13 12 12 12 13 13 13 13 13 14 14 15 15 16 16 16 16 16 17 18 19 19 19 19 20 20 20 20 21 21 21 21 21
12 13 14 14 15 14 14 14 13 12 12 12 13 13 13 13 13 13 14 14 15 16 16 16 15 15 16 18 19 19 19 19 19 20 20 20 21 21 21 21 21 21
12 13 14 14 14 14 14 13 13 12 12 12 13 13 13 13 13 13 14 14 14 15 15 15 15 15 17 18 19 19 19 19 20 20 21 21 21 21 22 21 21 21
12 13 14 14 14 13 13 13 12 12 13 13 12 12 12 13 13 13 13 13 14 14 14 14 14 15 17 18 18 19 19 20 20 21 21 21 21 21 21 21 21 21
12 13 13 14 13 13 12 12 12 13 13 13 12 12 13 13 13 13 13 13 13 13 13 13 14 16 17 18 18 19 19 20 21 21 21 21 21 21 20 20 20 20
Wind_Direction
332 329 326 321 316 317 318 318 318 319 321 321 318 310 300 295 297 301 305 310 313 315 316 317 319 322 323 324 324 325 325 324 323 321 319 318 317 316 315 314 313 311
328 326 322 316 314 315 315 316 316 317 320 319 314 305 298 297 300 305 311 314 316 318 318 319 320 322 324 324 324 323 323 322 321 320 319 318 317 315 314 313 313 311
323 321 317 314 314 313 313 314 314 315 317 316 310 302 298 300 305 311 315 317 317 318 319 319 319 321 323 323 321 320 320 319 319 317 316 315 315 314 314 313 312 310
321 319 316 315 313 311 312 313 312 313 313 312 306 299 298 302 308 313 316 317 318 319 320 320 320 322 322 321 319 319 318 318 317 316 314 314 314 313 313 312 311 309
321 318 316 316 313 310 311 312 312 311 309 307 302 298 299 303 308 313 315 316 318 319 320 320 321 323 322 320 319 318 319 319 318 317 316 315 314 313 312 311 310 308
319 316 315 314 311 310 310 311 311 308 305 303 300 297 298 304 308 312 314 315 317 319 320 321 323 324 322 320 319 320 321 321 320 319 318 316 315 314 312 312 310 308
315 313 313 313 312 310 310 310 308 305 303 301 298 298 300 304 308 310 313 315 316 319 320 321 324 324 322 321 322 323 324 324 323 321 319 317 315 315 314 313 311 309
312 311 313 314 313 311 309 309 307 304 301 299 298 299 301 303 306 309 312 314 316 319 320 323 325 324 323 323 324 325 326 325 324 321 319 318 317 316 316 314 312 309
312 312 314 315 313 310 307 307 307 303 299 298 298 299 301 302 304 307 311 313 316 319 321 323 325 324 324 325 326 326 326 326 324 322 320 320 319 318 317 315 313 309
312 313 315 315 311 307 305 307 308 303 298 297 298 299 300 300 302 305 308 311 315 318 321 323 324 324 324 325 326 327 327 327 325 324 323 322 321 320 318 316 314 311
312 313 314 313 309 305 305 309 310 304 298 296 298 298 298 298 299 301 305 309 314 317 319 322 323 324 324 325 327 328 328 328 327 325 325 323 322 321 319 317 315 313
311 313 313 312 308 305 307 312 313 307 301 297 297 296 295 296 297 298 302 307 312 315 318 321 323 323 325 326 328 329 329 329 328 327 326 324 323 321 319 318 315 314
310 312 313 310 306 305 309 313 314 311 303 297 294 294 294 295 295 296 300 305 310 313 317 320 322 323 325 327 328 329 330 330 329 328 326 325 323 320 318 317 315 314
309 311 311 308 305 306 311 315 316 313 305 297 293 293 293 293 293 295 299 305 310 314 317 320 321 323 326 328 328 329 330 330 329 328 327 326 323 320 318 316 315 314
309 310 308 305 306 309 313 316 316 313 306 297 292 291 291 292 293 296 301 307 311 315 318 319 321 324 327 328 329 330 331 331 329 327 326 325 322 320 318 317 315 315
308 308 306 304 307 310 313 314 314 313 307 299 292 290 290 291 294 299 306 310 314 317 319 320 322 325 329 330 332 333 332 330 327 325 324 324 323 322 320 318 317 316
306 305 304 306 308 310 311 312 313 313 309 302 295 291 291 294 299 305 310 313 316 318 320 321 324 328 331 334 336 335 332 329 325 323 323 324 324 323 322 319 318 319
305 305 306 307 308 309 311 312 313 313 311 306 299 296 297 301 307 310 313 315 318 320 321 323 326 331 334 337 338 336 333 329 326 325 325 325 325 324 323 322 322 321
306 306 307 307 308 309 311 312 314 314 313 311 309 307 307 309 311 313 315 318 321 322 323 326 330 334 337 340 339 336 334 332 329 327 327 327 326 326 325 325 325 325
305 306 307 307 308 310 311 313 315 316 317 319 318 316 313 313 314 316 318 321 323 325 326 329 333 336 339 340 339 337 335 334 332 330 329 329 328 328 328 327 328 328
303 305 308 307 308 310 312 315 317 319 322 324 323 320 317 316 317 320 323 325 326 327 330 333 336 338 340 339 338 337 336 335 333 332 331 331 331 330 329 329 330 330
303 305 307 308 309 311 314 317 319 321 324 327 327 324 321 320 323 326 328 328 328 331 335 337 337 338 339 339 338 337 336 335 334 333 333 333 332 331 330 331 332 333
304 305 306 308 311 314 317 319 321 324 328 331 330 326 325 327 329 330 331 332 333 335 337 337 337 337 338 338 338 338 337 336 335 335 334 334 333 332 332 332 334 335
304 304 307 310 313 316 318 320 323 328 333 334 331 328 329 331 332 332 333 334 335 336 335 335 336 336 337 337 337 338 337 336 336 335 335 335 333 333 333 333 335 336
304 307 310 313 316 318 319 322 327 332 335 334 331 330 331 332 331 331 332 333 334 334 333 333 335 335 336 337 337 338 337 336 336 335 335 335 334 334 335 335 336 338
307 311 313 315 318 321 322 327 333 336 336 333 331 331 332 331 329 329 330 331 332 333 332 332 334 335 336 338 338 338 337 336 335 335 335 335 335 336 337 337 338 339